Content
SEND FEEDBACK

Daily
Averages
Monthly
Summary
United States of America

RALEIGH, NORTH CAROLINA


Home > North America > United States > North Carolina
Elevation: 376 feet     Latitude: 35 52N     Longitude: 078 47W

WEATHER
 
SELECT A DAY
Number of Records: 197,387;   Date Range: 1/1/95 - 12/17/14
 
SHARE

PRINT THIS DATA

[ ← Previous Day ]
WEATHER ALMANAC - JANUARY 21, 2013
[ Next Day → ]
[ °C ]   °F
Weather ElementAverageHighLow
Temperature44.9 °F59 °F (2:51 pm)30 °F (7:51 am)
Dewpoint26 °F32 °F (8:51 am)14 °F (10:51 pm)
Humidity52.9 %92 % (7:51 am)27 % (9:51 pm)
Barometer29.99 in30.08 in (1:51 am)29.88 in (4:51 pm)
Wind Speed5.5 mph15 mph (2:51 pm)
Wind Gust19.6 mph (8:51 pm)
Weather ElementAverage
Visibility10 mi
Wind DirectionSSE (153.9 °)

Weather ElementTotal
Precipitation---
Heating Degree Days20.5 (Base 65)
Averaged from 23 records on January 21, 2013
WEATHER CONDITIONS BREAKOUT
WIND DIRECTION BREAKOUT
WEATHER BY HOUR - JANUARY 21, 2013
[ °C ]   °F
Local TimeTemperatureDewpointHumidityBarometerVisibilityWind DirectionWind SpeedGust SpeedPrecipitationEventsConditions
1:51 AM35.1 °F28.9 °F78 %30.08 in10.0 miCalmClear
2:51 AM34.0 °F28.9 °F82 %30.08 in10.0 miCalmClear
3:51 AM30.9 °F28.0 °F89 %30.07 in10.0 miCalmClear
4:51 AM32.0 °F28.0 °F85 %30.06 in10.0 miCalmClear
5:51 AM30.9 °F27.0 °F85 %30.07 in10.0 miCalmClear
6:51 AM30.9 °F28.0 °F89 %30.07 in10.0 miCalmClear
7:51 AM30.0 °F28.0 °F92 %30.07 in10.0 miCalmPartly Cloudy
8:51 AM37.0 °F32.0 °F82 %30.08 in10.0 miCalmPartly Cloudy
9:51 AM48.0 °F28.0 °F46 %30.07 in10.0 miESE (120°)5.8 mphClear
10:51 AM50.0 °F25.0 °F38 %30.06 in10.0 miSE (140°)6.9 mphPartly Cloudy
11:51 AM53.1 °F26.1 °F35 %30.03 in10.0 miSSW (200°)3.5 mphPartly Cloudy
12:51 PM55.9 °F26.1 °F32 %29.97 in10.0 miWSW (250°)9.2 mph16.1 mphPartly Cloudy
1:51 PM57.9 °F26.1 °F30 %29.94 in10.0 miSSW (210°)11.5 mphPartly Cloudy
2:51 PM59.0 °F28.9 °F32 %29.91 in10.0 miWSW (240°)15.0 mphPartly Cloudy
3:51 PM57.9 °F28.9 °F33 %29.90 in10.0 miWSW (240°)10.4 mphPartly Cloudy
4:51 PM55.9 °F30.9 °F39 %29.88 in10.0 miWSW (240°)9.2 mphPartly Cloudy
5:51 PM52.0 °F28.0 °F40 %29.88 in10.0 miWSW (250°)6.9 mphPartly Cloudy
6:51 PM46.9 °F28.0 °F48 %29.89 in10.0 miWSW (240°)5.8 mphPartly Cloudy
7:51 PM50.0 °F28.0 °F43 %29.91 in10.0 miWest (270°)6.9 mphPartly Cloudy
8:51 PM48.2 °F21.2 °F34 %29.93 in10.0 miWNW (290°)9.2 mph19.6 mphPartly Cloudy
9:51 PM48.0 °F15.1 °F27 %29.94 in10.0 miWNW (290°)8.1 mph18.4 mphPartly Cloudy
10:51 PM46.0 °F14.0 °F28 %29.96 in10.0 miWest (280°)8.1 mphPartly Cloudy
11:51 PM44.1 °F14.0 °F30 %29.96 in10.0 miWest (280°)9.2 mphPartly Cloudy
Hourly data recorded from KRDU, located miles away from Raleigh, North Carolina







STORIES FROM OUR PARTNERS